Weather History for YMML - November, 2013

Change the Weather History Date:

Wednesday, November 13, 2013

  Actual Average Record
Temperature  
Mean Temperature 52 °F -  
Max Temperature 57 °F 70 °F - (-1)
Min Temperature 48 °F 49 °F - (-1)
Degree Days  
Heating Degree Days 12    
Growing Degree Days 2 (Base 50)    
Moisture  
Dew Point 49 °F    
Average Humidity 87    
Maximum Humidity 100    
Minimum Humidity 57    
Precipitation  
Precipitation 0.12 in 0.07 in - ()
Sea Level Pressure  
Sea Level Pressure 29.93 in    
Wind  
Wind Speed 13 mph ()    
Max Wind Speed 21 mph    
Max Gust Speed -    
Visibility 6.5 miles    
Events Rain    
Averages and records for this station are not official NWS values.
T = Trace of Precipitation, MM = Missing Value Source: Averaged Metar Reports

Daily Weather History Graph

Daily Weather History Graph

Search for Another Location

Airport or City:

Trip Planner

Search our weather history database for the weather conditions in past years. The results will help you decide how hot, cold, wet, or windy it might be!

Date:

Astronomy

Nov. 13, 2013 Rise Set
Actual Time 6:02 AM AEDT 8:07 PM AEDT
Civil Twilight 5:33 AM AEDT 8:36 PM AEDT
Nautical Twilight 4:58 AM AEDT 9:12 PM AEDT
Astronomical Twilight 4:19 AM AEDT 9:50 PM AEDT
Moon 3:47 PM AEDT (11/13) 3:14 AM AEDT (11/13)
Length of Visible Light 15h 03m
Length of Day
14h 05m
Waxing Gibbous, 79% of the Moon is Illuminated
Nov 13
Waxing Gibbous
Nov 18
Full
Nov 26
Last Quarter
Dec 3
New
Dec 10
First Quarter

Hourly Weather History & Observations

Time (AEDT) Temp. Dew Point Humidity Pressure Visibility Wind Dir Wind Speed Gust Speed Precip Events Conditions
12:00 AM 49 °F 48 °F 93% 29.98 in 9 mi SW 11.5 mph - - Rain Light Rain
12:00 AM 50.0 °F 48.2 °F 94% 29.98 in 6.2 mi SW 11.5 mph - N/A Rain Light Rain
12:25 AM 50.0 °F 48.2 °F 94% 29.98 in 6.2 mi SW 12.7 mph - N/A Rain Light Rain
12:30 AM 50.0 °F 48.2 °F 94% 29.98 in 6.2 mi WSW 15.0 mph - N/A Rain Light Rain
1:00 AM 49 °F 48 °F 93% 29.96 in - WSW 11.5 mph - -  
1:00 AM 48.2 °F 48.2 °F 100% 29.95 in 5.6 mi WSW 11.5 mph - N/A Rain Light Rain
1:09 AM 48.2 °F 48.2 °F 100% 29.95 in 3.7 mi WSW 12.7 mph - N/A Rain Light Rain
1:19 AM 48.2 °F 48.2 °F 100% 29.95 in 5.0 mi WSW 15.0 mph - N/A Rain Light Rain
1:29 AM 48.2 °F 48.2 °F 100% 29.95 in 0.4 mi WSW 15.0 mph - N/A Rain Light Rain
1:30 AM 48.2 °F 48.2 °F 100% 29.95 in 3.7 mi WSW 13.8 mph - N/A Rain Light Rain
1:58 AM 48.2 °F 46.4 °F 93% 29.92 in 5.6 mi WSW 13.8 mph - N/A Rain Light Rain
2:00 AM 48 °F 47 °F 96% 29.93 in - WSW 13.8 mph - -  
2:00 AM 48.2 °F 48.2 °F 100% 29.92 in 5.0 mi WSW 13.8 mph - N/A Rain Light Rain
2:17 AM 48.2 °F 46.4 °F 93% 29.92 in 6.2 mi WSW 12.7 mph - N/A   Light Drizzle
2:30 AM 48.2 °F 46.4 °F 93% 29.92 in 6.2 mi West 13.8 mph - N/A Rain Light Rain
3:00 AM 49 °F 47 °F 90% 29.91 in 16 mi West 12.7 mph - - Rain Light Rain
3:00 AM 48.2 °F 46.4 °F 93% 29.92 in 6.2 mi West 12.7 mph - N/A Rain Light Rain
3:27 AM 48.2 °F 48.2 °F 100% 29.92 in 3.7 mi West 11.5 mph - N/A Rain Light Rain
3:30 AM 48.2 °F 48.2 °F 100% 29.92 in 3.1 mi West 12.7 mph - N/A Rain Light Rain
3:56 AM 48.2 °F 48.2 °F 100% 29.89 in 6.2 mi West 11.5 mph - N/A Rain Light Rain
4:00 AM 49 °F 47 °F 92% 29.91 in - West 11.5 mph - -  
4:30 AM 50.0 °F 46.4 °F 87% 29.89 in 6.2 mi West 10.4 mph - N/A   Light Drizzle
5:00 AM 49 °F 47 °F 89% 29.90 in - West 10.4 mph - -  
5:00 AM 50.0 °F 46.4 °F 87% 29.89 in 6.2 mi West 10.4 mph - N/A   Light Drizzle
5:30 AM 50.0 °F 46.4 °F 87% 29.89 in 6.2 mi West 12.7 mph - N/A Rain Light Rain
6:00 AM 49 °F 46 °F 84% 29.91 in 11 mi West 17.3 mph - - Rain Light Rain
6:00 AM 48.2 °F 46.4 °F 93% 29.89 in 6.2 mi West 17.3 mph - N/A Rain Light Rain
6:30 AM 48.2 °F 46.4 °F 93% 29.92 in 6.2 mi WNW 16.1 mph - N/A Rain Light Rain
7:00 AM 49 °F 47 °F 88% 29.92 in - West 16.1 mph - -  
7:00 AM 48.2 °F 46.4 °F 93% 29.92 in 5.6 mi West 16.1 mph - N/A Rain Light Rain
7:30 AM 50.0 °F 46.4 °F 87% 29.92 in 5.6 mi WNW 15.0 mph - N/A Rain Light Rain
8:00 AM 50 °F 47 °F 87% 29.92 in - WNW 15.0 mph - -  
8:00 AM 50.0 °F 48.2 °F 94% 29.92 in 6.2 mi WNW 15.0 mph - N/A Rain Light Rain
8:30 AM 50.0 °F 48.2 °F 94% 29.92 in 5.0 mi WNW 15.0 mph - N/A Rain Light Rain
9:00 AM 51 °F 48 °F 85% 29.93 in 6 mi West 17.3 mph - - Rain Light Rain
9:00 AM 51.8 °F 48.2 °F 88% 29.92 in 5.6 mi West 17.3 mph - N/A Rain Light Rain
9:30 AM 51.8 °F 48.2 °F 88% 29.92 in 6.2 mi West 16.1 mph - N/A Rain Light Rain
10:00 AM 53 °F 49 °F 83% 29.93 in - WNW 18.4 mph - -  
10:00 AM 51.8 °F 50.0 °F 94% 29.92 in 5.0 mi WNW 18.4 mph - N/A Rain Light Rain
10:30 AM 53.6 °F 50.0 °F 88% 29.92 in 5.6 mi WNW 18.4 mph - N/A Rain Light Rain
11:00 AM 54 °F 48 °F 73% 29.93 in - West 18.4 mph - -  
11:00 AM 53.6 °F 48.2 °F 82% 29.92 in 6.2 mi West 18.4 mph - N/A   Light Drizzle
11:30 AM 55.4 °F 48.2 °F 77% 29.92 in 6.2 mi West 18.4 mph - N/A   Mostly Cloudy
12:00 PM 56 °F 45 °F 57% 29.92 in 16 mi West 19.6 mph - - Rain Light Drizzle
12:00 PM 55.4 °F 44.6 °F 67% 29.92 in 6.2 mi West 19.6 mph - N/A   Mostly Cloudy
12:30 PM 57.2 °F 46.4 °F 67% 29.92 in 6.2 mi West 19.6 mph - N/A   Mostly Cloudy
1:00 PM 56 °F 47 °F 62% 29.92 in - West 20.7 mph - -  
1:00 PM 57.2 °F 46.4 °F 67% 29.92 in 6.2 mi West 20.7 mph - N/A Rain Light Rain
1:30 PM 55.4 °F 46.4 °F 72% 29.92 in 6.2 mi West 17.3 mph - N/A Rain Light Rain
2:00 PM 54 °F 50 °F 80% 29.93 in - West 17.3 mph - -  
2:00 PM 55.4 °F 50.0 °F 82% 29.92 in 6.2 mi West 17.3 mph - N/A Rain Light Rain
2:30 PM 53.6 °F 50.0 °F 88% 29.92 in 6.2 mi WSW 17.3 mph - N/A Rain Light Rain
3:00 PM 54 °F 50 °F 81% 29.94 in 7 mi West 16.1 mph - - Rain Light Rain
3:00 PM 53.6 °F 50.0 °F 88% 29.92 in 6.2 mi West 16.1 mph - N/A Rain Light Rain
3:30 PM 53.6 °F 51.8 °F 94% 29.92 in 5.6 mi West 15.0 mph - N/A Rain Light Rain
4:00 PM 54 °F 51 °F 86% 29.93 in - WNW 12.7 mph - -  
4:00 PM 53.6 °F 51.8 °F 94% 29.92 in 5.6 mi WNW 12.7 mph - N/A Rain Light Rain
4:30 PM 55.4 °F 50.0 °F 82% 29.92 in 6.2 mi NW 12.7 mph - N/A Rain Light Rain
5:00 PM 55 °F 52 °F 84% 29.93 in - WNW 11.5 mph - -  
5:00 PM 55.4 °F 51.8 °F 88% 29.92 in 6.2 mi WNW 11.5 mph - N/A Rain Light Rain
5:30 PM 55.4 °F 51.8 °F 88% 29.92 in 6.2 mi NW 9.2 mph - N/A Rain Light Rain
6:00 PM 55 °F 51 °F 83% 29.93 in 12 mi WNW 11.5 mph - - Rain Light Rain
6:00 PM 55.4 °F 51.8 °F 88% 29.92 in 6.2 mi WNW 11.5 mph - N/A Rain Light Rain
6:30 PM 55.4 °F 50.0 °F 82% 29.92 in 6.2 mi WNW 9.2 mph - N/A   Mostly Cloudy
7:00 PM 55 °F 50 °F 78% 29.94 in - WNW 10.4 mph - -  
7:00 PM 55.4 °F 50.0 °F 82% 29.92 in 6.2 mi WNW 10.4 mph - N/A   Light Drizzle
7:30 PM 55.4 °F 50.0 °F 82% 29.95 in 6.2 mi WNW 11.5 mph - N/A   Light Drizzle
8:00 PM 55 °F 50 °F 77% 29.95 in - WNW 10.4 mph - -  
8:00 PM 55.4 °F 50.0 °F 82% 29.95 in 6.2 mi WNW 10.4 mph - N/A   Light Drizzle
8:30 PM 53.6 °F 50.0 °F 88% 29.95 in 6.2 mi West 17.3 mph - N/A   Mostly Cloudy
9:00 PM 54 °F 50 °F 83% 29.96 in 16 mi West 16.1 mph - -   Mostly Cloudy
9:00 PM 55.4 °F 50.0 °F 82% 29.95 in 6.2 mi West 16.1 mph - N/A   Mostly Cloudy
9:30 PM 53.6 °F 50.0 °F 88% 29.98 in 6.2 mi West 15.0 mph - N/A Rain Light Rain
10:00 PM 54 °F 51 °F 86% 29.97 in - West 15.0 mph - -  
10:00 PM 53.6 °F 51.8 °F 94% 29.98 in 6.2 mi West 15.0 mph - N/A   Light Drizzle
10:30 PM 53.6 °F 50.0 °F 88% 29.98 in 6.2 mi West 13.8 mph - N/A   Mostly Cloudy
11:00 PM 54 °F 50 °F 82% 29.98 in - West 16.1 mph - -  
11:00 PM 53.6 °F 50.0 °F 88% 29.98 in 6.2 mi West 16.1 mph - N/A   Mostly Cloudy
11:30 PM 53.6 °F 50.0 °F 88% 29.98 in 6.2 mi West 15.0 mph - N/A   Mostly Cloudy